Location: Les Jeannots
(43.2262°N, 5.5774°E)
Time: 07:45:22
(UTC+00:00)

BREEZE-M R/B - Pass Details

Date: 05 July 2020
Orbit: 311 x 4532 km, 49.7° (Epoch: 04 August)

Event Time Altitude Azimuth Distance (km) Brightness Sun altitude
Rises 22:08:06 0° 301° (WNW) 5,803 8.9 -20.6°
Reaches altitude 10° 22:13:00 10° 297° (WNW) 4,056 7.9 -21.0°
Maximum altitude 22:21:46 48° 227° (SW) 1,191 4.3 -21.5°
Enters shadow 22:22:57 42° 191° (S) 1,181 4.0 -21.6°
